Regional Weather Roundup
Issued by NWS

Home | Current Version | Previous Version | Text Only | Print | Product List | Glossary On
Versions: 1 2 3 4 5 6 7 8 9 10 11 12 13 14 15 16 17 18 19 20 21 22 23 24 25 26 27 28 29 30 31 32 33 34 35 36 37 38 39 40 41 42 43 44 45 46 47 48 49 50
000
ASUS45 KABQ 260401
RWRNM
WEATHER ROUNDUP FOR NEW MEXICO
NATIONAL WEATHER SERVICE ALBUQUERQUE NM
1000 PM MDT SAT OCT 25 2014

NOTE: "FAIR" MEANS FEW OR NO CLOUDS BELOW 12,000 FEET AGL WITH NO
       SIGNIFICANT WEATHER OR OBSTRUCTIONS TO VISION.

      THIS PRODUCT IS RELEASED AS TWO VERSIONS.  ONE VERSION NEAR
      THE TOP OF THE HOUR CONTAINING PRELIMINARY DATA FROM ALBUQUERQUE
      AND OTHER STATIONS.  A FINAL VERSION WITH ADDITIONAL DATA IS
      ISSUED ABOUT 10 MINUTES AFTER THE HOUR.

NMZ501-503-504-510>518-260500-
NORTHWEST PLATEAU/NORTHCENTRAL MOUNTAINS

CITY           SKY/WX    TMP DP  RH WIND       PRES   REMARKS
FARMINGTON     PTCLDY    53  33  46 E3        30.17S
LOS ALAMOS     CLEAR     61  28  28 W8        30.30R
SANTA FE       CLEAR     56  28  34 NW6       30.23R
TAOS           CLEAR     48  19  32 E5        30.27S
ANGEL FIRE     FAIR      42  24  49 S6        30.33S

$$
NMZ402-403-502-505>509-260500-
WESTCENTRAL MOUNTAINS/SOUTHWEST MOUNTAINS

CITY           SKY/WX    TMP DP  RH WIND       PRES   REMARKS
GALLUP         PTCLDY    54  35  48 CALM      30.27R
GRANTS         CLEAR     54  32  43 CALM      30.29S
SILVER CITY    CLEAR     57  41  54 N10       30.25R

$$
NMZ407-409-411-412-260500-
SOUTHERN DESERTS

CITY           SKY/WX    TMP DP  RH WIND       PRES   REMARKS
LORDSBURG      MOCLDY    63  41  45 S5        30.15R
DEMING         CLEAR     63  43  48 SW5       30.17R
LAS CRUCES     CLEAR     63  46  53 SW6       30.17S
HOLLOMAN AFB   PTCLDY    63  44  49 S6        30.13S
T OR C         CLEAR     65  43  44 S5        30.17R

$$
NMZ519>523-260500-
CENTRAL VALLEYS/CENTRAL HIGHLANDS

CITY           SKY/WX    TMP DP  RH WIND       PRES   REMARKS
ALBUQUERQUE    CLEAR     64  35  34 VRB3      30.18S
DOUBLE EAGLE   CLEAR     55  36  47 S7        30.21S
MORIARTY ARPT  FAIR      44  29  55 SE3       30.25S
CLINES CORNERS CLEAR     53  30  41 SW13      30.27R
BELEN          NOT AVBL
SOCORRO        FAIR      60  40  47 S6        30.17R

$$
NMZ524>526-539-540-260500-
SOUTHCENTRAL MOUNTAINS

CITY           SKY/WX    TMP DP  RH WIND       PRES   REMARKS
RUIDOSO        CLEAR     55  32  41 W9        30.31F

$$
NMZ527>531-260500-
NORTHEAST HIGHLANDS/NORTHEAST PLAINS

CITY           SKY/WX    TMP DP  RH WIND       PRES   REMARKS
LAS VEGAS      CLEAR     54  26  34 SW12      30.23S
RATON          CLEAR     49  22  34 N5        30.13S
CLAYTON        CLEAR     59  39  47 S13       30.06F

$$
NMZ532>537-260500-
EASTCENTRAL PLAINS

CITY           SKY/WX    TMP DP  RH WIND       PRES   REMARKS
TUCUMCARI      CLEAR     67  42  40 SW15      30.05F
CANNON AFB     CLEAR     59  41  51 SW7       30.13S
CLOVIS AIRPORT CLEAR     55  39  54 SW8       30.15S

$$
NMZ028-029-538-260500-
SOUTHEAST PLAINS

CITY           SKY/WX    TMP DP  RH WIND       PRES   REMARKS
ROSWELL        CLEAR     58  53  84 SW5       30.09S
CARLSBAD       CLEAR     61  51  70 W8        30.09R
HOBBS          CLEAR     61  46  59 S7        30.14S


$$



USA.gov is the U.S. government's official web portal to all federal, state and local government web resources and services.